This is the latest recevied weather packets stored in our database for station/object YN1JLX-13. If no packets are shown the sender has not sent any weather packets the latest 10 day(s).
| Time | Temp. | Humidity | Pressure | Rain* | Wind** | Luminosity | Snow |
|---|---|---|---|---|---|---|---|
| 1777770782 | 21.67° C | 57% | 1010 hPa | 0.25 mm | - | - | - |
| 1777770181 | 22.78° C | 57% | 1010 hPa | 0 mm | - | - | - |
| 1777769581 | 23.89° C | 56% | 1010 hPa | 0.25 mm | - | - | - |
| 1777768980 | 23.89° C | 56% | 1010 hPa | 0.25 mm | - | - | - |
| 1777768380 | 23.33° C | 53% | 1010 hPa | 0.25 mm | - | - | - |
| 1777767780 | 24.44° C | 53% | 1009 hPa | 0 mm | - | - | - |
| 1777767180 | 23.33° C | 52% | 1009 hPa | 0 mm | - | - | - |
| 1777766579 | 24.44° C | 52% | 1009 hPa | 0 mm | - | - | - |
| 1777765978 | 25.56° C | 51% | 1009 hPa | 0 mm | - | - | - |
| 1777765378 | 25° C | 44% | 1008 hPa | 0 mm | - | - | - |
| 1777764778 | 26.11° C | 42% | 1008 hPa | 0 mm | - | - | - |
| 1777764178 | 27.22° C | 41% | 1007 hPa | 0 mm | - | - | - |
| 1777763577 | 26.11° C | 41% | 1007 hPa | 0 mm | - | - | - |
| 1777762977 | 27.22° C | 41% | 1007 hPa | 0 mm | - | - | - |
| 1777762377 | 27.78° C | 41% | 1007 hPa | 0 mm | - | - | - |
| 1777761776 | 28.33° C | 41% | 1007 hPa | 0 mm | - | - | - |
| 1777761176 | 28.89° C | 41% | 1007 hPa | 0 mm | - | - | - |
| 1777760576 | 27.78° C | 41% | 1007 hPa | 0 mm | - | - | - |
| 1777759976 | 27.22° C | 41% | 1007 hPa | 0 mm | - | - | - |
| 1777759375 | 28.33° C | 41% | 1007 hPa | 0 mm | - | - | - |
| 1777758775 | 27.78° C | 40% | 1007 hPa | 0 mm | - | - | - |
| 1777758175 | 28.89° C | 40% | 1007 hPa | 0 mm | - | - | - |
| 1777757574 | 27.78° C | 40% | 1007 hPa | 0 mm | - | - | - |
| 1777756974 | 28.89° C | 40% | 1007 hPa | 0 mm | - | - | - |
| 1777756374 | 28.33° C | 41% | 1007 hPa | 0 mm | - | - | - |
* Rain latest hour (hover to see other rain measurements)
** Current wind speed in m/s (hover to see current wind gust speed)